User: anonymous   Login
Location: Goheenville
(40.9070°N, 79.3720°W)
Time: 12:02:23
(UTC-04:00)
Language:

Meteor 2-10 Rocket - Orbit

View from above orbital plane
View from above orbital plane
View from above satellite
View from above satellite

Ground track
Ground track

The orbit data is extracted from the following two-line orbital elements,

1 14453U 83109B   17179.90561833 +.00000072 +00000-0 +23988-4 0  9991
2 14453 081.1678 094.5211 0105722 030.2899 330.4332 14.24675423749129
Epoch (UTC): 28 June 2017 21:44:05
Eccentricity: 0.0105722
inclination: 81.1678°
perigee height: 733 km
apogee height: 885 km
right ascension of ascending node: 94.5211°
argument of perigee: 30.2899°
revolutions per day: 14.24675423
mean anomaly at epoch: 330.4332°
orbit number at epoch: 74912

The dashed part of the orbit path shows where the satellite is in the earth's shadow,  

DLR